Location: Newark
(7.1028°S, 35.3258°W)
Time: 09:32:56
(UTC+00:00)

Vanguard 3 - Pass Details

Date: 21 February 2020
Orbit: 508 x 3262 km, 33.3° (Epoch: 28 March)

Event Time Altitude Azimuth Distance (km) Brightness Sun altitude
Rises 04:09:16 0° 224° (SW) 5,185 - -60.5°
Reaches altitude 10° 04:16:03 10° 197° (SSW) 3,420 - -59.2°
Maximum altitude 04:19:03 12° 176° (S) 2,907 - -58.5°
Drops below altitude 10° 04:21:35 10° 153° (SSE) 2,773 - -58.0°
Sets 04:25:39 0° 121° (ESE) 3,262 - -57.2°
